CW2674 Weather Reports


Display with metric or nautical units.
time (UTC)temp
F
wind
direction
speed
MPH
gust
MPH
rain 1hr
in
rain 24hr
in
rain mn
in
humidity
%
barometer
mb
20260831161407 80 97 2.0 12.0 0.00 0.24 0.00 69 1016.1
20260831160406 80 126 10.0 15.0 0.00 0.10 0.00 70 1015.9
20260831154404 80 79 7.0 10.0 0.00 0.10 0.00 73 1015.8
20260831153407 80 86 6.0 12.0 0.00 0.24 0.00 73 1015.6
20260831151406 80 77 6.0 10.0 0.00 0.24 0.00 72 1015.4
20260831144406 80 103 6.0 7.0 0.00 0.24 0.00 68 1015.0
20260831143405 80 99 6.0 12.0 0.00 0.24 0.00 68 1014.6
20260831143403 80 98 7.0 12.0 0.00 0.10 0.00 68 1014.6
20260831141404 80 107 7.0 12.0 0.00 0.24 0.00 67 1014.1
20260831140404 80 59 6.0 9.0 0.00 0.24 0.00 67 1013.7
20260831134406 79 95 2.0 7.0 0.00 0.24 0.00 70 1013.3
20260831133407 79 107 2.0 3.0 0.00 0.24 0.00 70 1012.9
20260831131404 79 126 0.0 1.0 0.00 0.24 0.00 70 1012.8
20260831130404 79 126 2.0 3.0 0.00 0.10 0.00 69 1012.6
20260831124406 79 126 0.0 1.0 0.00 0.10 0.00 69 1012.1
20260831123406 79 126 0.0 2.0 0.00 0.10 0.00 69 1012.1
20260831120406 78 126 1.0 3.0 0.07 0.10 0.00 69 1011.9
20260831114407 78 53 2.0 3.0 0.00 0.24 0.00 69 1011.8
20260831111406 78 0 0.0 0.0 0.00 0.24 0.00 68 1011.1
20260831071404 78 347 10.0 18.0 0.00 0.24 0.00 70 1011.2
20260831070404 77 351 13.0 20.0 0.01 0.24 0.00 70 1011.5
20260831064405 77 16 11.0 16.0 0.08 0.24 0.24 71 1011.6
20260831063407 77 337 10.0 22.0 0.14 0.24 0.24 72 1011.6
20260831061404 77 326 8.0 20.0 0.14 0.24 0.24 73 1011.8
20260831054407 83 350 5.0 12.0 0.13 0.16 0.16 63 1012.4
20260831044406 86 134 13.0 15.0 0.10 0.10 0.10 62 1010.8
20260831043404 94 214 15.0 20.0 0.03 0.03 0.03 50 1010.2
20260831041407 99 213 7.0 17.0 0.00 0.00 0.00 34 1009.0
20260831040406 99 227 5.0 6.0 0.00 0.00 0.00 32 1008.4
20260831034403 100 228 1.0 5.0 0.00 0.00 0.00 31 1008.2
20260831030404 100 229 2.0 5.0 0.00 0.00 0.00 30 1008.2
20260831024405 101 228 2.0 5.0 0.00 0.00 0.00 30 1007.7
20260831023404 101 223 2.0 5.0 0.00 0.00 0.00 30 1007.6
20260831020404 101 214 0.0 7.0 0.00 0.00 0.00 30 1007.3
20260831011403 103 238 3.0 5.0 0.00 0.00 0.00 29 1006.9
20260831010404 104 252 3.0 9.0 0.00 0.00 0.00 29 1007.0
20260831004404 104 266 3.0 10.0 0.00 0.00 0.00 28 1007.0
20260831001404 106 274 3.0 10.0 0.00 0.00 0.00 27 1007.1
20260831000403 106 236 3.0 10.0 0.00 0.00 0.00 27 1007.3
20260830234407 105 277 4.0 10.0 0.00 0.00 0.00 28 1007.6
20260830233407 107 287 7.0 10.0 0.00 0.00 0.00 26 1007.5
20260830230404 106 221 4.0 12.0 0.00 0.00 0.00 28 1007.8
20260830224403 107 191 8.0 15.0 0.00 0.00 0.00 28 1008.1
20260830221403 108 221 3.0 8.0 0.00 0.00 0.00 27 1008.6
20260830220403 106 254 2.0 7.0 0.00 0.00 0.00 29 1008.8
20260830214404 106 255 2.0 5.0 0.00 0.00 0.00 28 1009.2
20260830213404 106 257 2.0 10.0 0.00 0.00 0.00 28 1009.4
20260830211403 106 274 3.0 7.0 0.00 0.00 0.00 30 1009.8
20260830204404 106 263 6.0 8.0 0.00 0.00 0.00 29 1010.5
20260830201405 105 243 5.0 7.0 0.00 0.00 0.00 30 1011.0
20260830200403 105 190 3.0 9.0 0.00 0.00 0.00 30 1011.1
20260830194404 106 121 3.0 7.0 0.00 0.00 0.00 30 1011.4
20260830193404 105 121 1.0 8.0 0.00 0.00 0.00 30 1011.6
20260830191404 104 175 4.0 8.0 0.00 0.00 0.00 32 1012.0
20260830190405 103 227 2.0 8.0 0.00 0.00 0.00 31 1012.1
20260830184406 103 225 7.0 8.0 0.00 0.00 0.00 31 1012.5
20260830183405 103 277 6.0 10.0 0.00 0.00 0.00 32 1012.7
20260830181404 101 197 2.0 6.0 0.00 0.00 0.00 34 1012.8
20260830180404 100 202 3.0 6.0 0.00 0.00 0.00 32 1012.9
20260830174405 100 227 2.0 7.0 0.00 0.00 0.00 33 1013.2
20260830173406 99 217 2.0 7.0 0.00 0.00 0.00 34 1013.3
20260830171404 98 222 1.0 7.0 0.00 0.00 0.00 34 1013.3
20260830170404 97 175 3.0 6.0 0.00 0.00 0.00 36 1013.3
20260830163403 96 237 3.0 9.0 0.00 0.00 0.00 36 1013.3